Flag for Canada Weather past 2 weeks in Abbotsford, British Columbia, Canada

Now
61 °F

Mostly cloudy.


Feels Like: 61 °F
Forecast: 54 / 61 °F
Wind: 2 mph from North

Location: Abbotsford

Current Time: Aug 29, 2014 at 7:57:32 PM

Latest Report: Aug 29, 2014 at 7:00 PM


Visibility: 15 mi

Pressure: 29.96 "Hg

Humidity: 88%

Dew point: 57 °F

Location of AbbotsfordLocation

Historic Weather in Abbotsford — Graph

°F

Abbotsford temperature yesterday

Maximum temperature yesterday: 73 °F (at 3:00 PM)
Minimum temperature yesterday: 59 °F (at 3:00 AM)
Average temperature yesterday: 66 °F

Past Weeks' High & Low Weather Summary

 TemperatureHumidityPressure
High86 °F (Aug 26, 4:00 PM)100% (Aug 14, 8:00 PM)30.15 "Hg (Aug 14, 8:00 PM)
Low54 °F (Aug 21, 5:00 AM)42% (Aug 23, 6:00 PM)29.76 "Hg (Aug 19, 8:00 PM)
Average66 °F78%30.00 "Hg
* Reported Aug 14 6:00 PM — Aug 29 6:53 PM, Abbotsford, Weather by CustomWeather, © 2014

Note: Actual official high and low records may vary slightly from our data, if they occured in-between our weather recording intervals... More about our weather records

Advertising

Abbotsford weather history for previous 24 hours

 ConditionsComfort  
Time TempWeatherWind HumidityBarometerVisibility
6:53 PM
Aug 29
61 °FMostly cloudy.2 mph88%29.96 "Hg15 mi
6:00 PM64 °FMore clouds than sun.12 mph68%29.96 "Hg15 mi
5:00 PM64 °FOvercast.7 mph64%29.97 "Hg15 mi
4:00 PM66 °FOvercast.9 mph60%29.96 "Hg20 mi
3:00 PM66 °FOvercast.12 mph60%29.97 "Hg20 mi
2:00 PM66 °FBroken clouds.13 mph60%29.98 "Hg20 mi
12:00 PM64 °FMore clouds than sun.10 mph56%29.97 "Hg20 mi
11:00 AM64 °FMore clouds than sun.7 mph64%29.96 "Hg20 mi
10:00 AM63 °FMostly cloudy.6 mph68%29.97 "Hg20 mi
9:00 AM63 °FMostly cloudy.8 mph68%29.96 "Hg20 mi
8:00 AM61 °FMostly cloudy.8 mph72%29.95 "Hg20 mi
7:00 AM61 °FOvercast.8 mph77%29.95 "Hg20 mi
6:00 AM61 °FMostly cloudy.6 mph83%29.94 "Hg20 mi
5:00 AM61 °FPassing clouds.5 mph88%29.95 "Hg10 mi
4:00 AM61 °FPassing clouds.8 mph94%29.96 "Hg10 mi
3:00 AM63 °FPassing clouds.2 mph88%29.96 "Hg10 mi
2:00 AM63 °FPassing clouds.No wind88%29.97 "Hg10 mi
1:00 AM63 °FPartly cloudy.3 mph88%29.98 "Hg10 mi
12:00 AM64 °FPartly cloudy.3 mph83%29.99 "Hg10 mi
11:00 PM
Aug 28
64 °FPartly cloudy.No wind83%30.00 "Hg10 mi
10:00 PM66 °FPartly cloudy.2 mph78%30.01 "Hg10 mi
9:00 PM66 °FOvercast.8 mph78%30.03 "Hg10 mi
8:00 PM66 °FCloudy.15 mph78%30.02 "Hg30 mi
7:00 PM70 °FPartly sunny.9 mph69%30.02 "Hg30 mi
Weather by CustomWeather, © 2014

See weather overviewHow to use our weather pages